• In Hungary
  • List of Countries
  • For 7 days
  • Water Temperature
  • Satellite Maps
  • Weather Map
  • News
  • Weather Widgets
  • user-avatar
    Login

    Hourly Weather Chubyns'ke

    Today, 13 December, Wednesday

    Time Temperature Precipitation Wind Pressure Humidity
    00:00 +3°C° 0 mm 3 mps 748 mmHg 86%
    01:00 +4°C° 0 mm 2 mps 748 mmHg 87%
    02:00 +3°C° 0 mm 2 mps 748 mmHg 87%
    03:00 +3°C° 0 mm 2 mps 748 mmHg 88%
    04:00 +3°C° 0 mm 2 mps 748 mmHg 89%
    05:00 +3°C° 0 mm 2 mps 748 mmHg 89%
    06:00 +3°C° 0 mm 2 mps 749 mmHg 90%
    07:00 +3°C° 0 mm 2 mps 749 mmHg 91%
    08:00 +4°C° 0 mm 1 mps 749 mmHg 91%
    09:00 +3°C° 0 mm 2 mps 749 mmHg 93%
    10:00 +3°C° 0 mm 2 mps 749 mmHg 96%
    11:00 +3°C° 0 mm 2 mps 750 mmHg 98%
    12:00 +2°C° 0.1 mm 3 mps 750 mmHg 97%
    13:00 +2°C° 0.1 mm 3 mps 750 mmHg 96%
    14:00 +2°C° 0.1 mm 3 mps 750 mmHg 95%
    15:00 +1°C° 0.3 mm 3 mps 750 mmHg 95%
    16:00 +1°C° 0.3 mm 3 mps 750 mmHg 95%
    17:00 +1°C° 0.3 mm 3 mps 750 mmHg 94%
    18:00 +1°C° 0.8 mm 3 mps 749 mmHg 94%
    19:00 +1°C° 0.8 mm 2 mps 749 mmHg 94%
    20:00 +1°C° 0.8 mm 2 mps 749 mmHg 94%
    21:00 +1°C° 1.2 mm 2 mps 749 mmHg 94%
    22:00 0°C° 1.2 mm 3 mps 748 mmHg 94%
    23:00 0°C° 1.2 mm 3 mps 748 mmHg 94%

    Tomorrow, 14 December, Thursday

    Time Temperature Precipitation Wind Pressure Humidity
    00:00 0°C° 0.3 mm 3 mps 748 mmHg 95%
    01:00 0°C° 0.3 mm 3 mps 748 mmHg 95%
    02:00 0°C° 0.3 mm 3 mps 747 mmHg 95%
    03:00 -1°C° 0 mm 2 mps 747 mmHg 96%
    04:00 -1°C° 0 mm 2 mps 746 mmHg 96%
    05:00 +1°C° 0 mm 1 mps 746 mmHg 97%
    06:00 +1°C° 0 mm 1 mps 746 mmHg 97%
    07:00 +1°C° 0 mm 1 mps 746 mmHg 97%
    08:00 +1°C° 0 mm 1 mps 746 mmHg 97%
    09:00 +1°C° 0 mm 1 mps 745 mmHg 97%
    10:00 +1°C° 0 mm 1 mps 745 mmHg 97%
    11:00 +1°C° 0 mm 0 mps 745 mmHg 98%
    12:00 +2°C° 0 mm 1 mps 745 mmHg 98%
    13:00 +2°C° 0 mm 1 mps 745 mmHg 98%
    14:00 +1°C° 0 mm 2 mps 744 mmHg 98%
    15:00 +1°C° 0 mm 2 mps 744 mmHg 97%
    16:00 +1°C° 0 mm 2 mps 744 mmHg 96%
    17:00 +1°C° 0 mm 2 mps 745 mmHg 95%
    18:00 0°C° 0 mm 3 mps 744 mmHg 94%
    19:00 0°C° 0 mm 3 mps 744 mmHg 94%
    20:00 0°C° 0 mm 3 mps 744 mmHg 93%
    21:00 0°C° 0 mm 3 mps 744 mmHg 93%
    22:00 -1°C° 0 mm 4 mps 744 mmHg 93%
    23:00 -1°C° 0 mm 4 mps 744 mmHg 92%

    Day after tomorrow, 15 December, Friday

    Time Temperature Precipitation Wind Pressure Humidity
    00:00 -1°C° 0 mm 4 mps 745 mmHg 92%
    01:00 0°C° 0 mm 3 mps 745 mmHg 92%
    02:00 +1°C° 0 mm 3 mps 745 mmHg 92%
    03:00 0°C° 0 mm 3 mps 745 mmHg 92%
    04:00 +1°C° 0 mm 2 mps 745 mmHg 92%
    05:00 +1°C° 0 mm 2 mps 745 mmHg 92%
    06:00 +1°C° 0 mm 2 mps 745 mmHg 92%
    07:00 +1°C° 0 mm 2 mps 745 mmHg 91%
    08:00 -1°C° 0 mm 2 mps 745 mmHg 90%
    09:00 0°C° 0 mm 3 mps 745 mmHg 90%
    10:00 0°C° 0 mm 4 mps 745 mmHg 91%
    11:00 0°C° 0 mm 4 mps 745 mmHg 91%
    12:00 +1°C° 0 mm 5 mps 745 mmHg 90%
    13:00 +1°C° 0 mm 5 mps 744 mmHg 88%
    14:00 +2°C° 0 mm 6 mps 743 mmHg 87%
    15:00 +2°C° 0.1 mm 6 mps 743 mmHg 87%
    16:00 +2°C° 0.1 mm 7 mps 743 mmHg 87%
    17:00 +2°C° 0.1 mm 7 mps 743 mmHg 87%
    18:00 +3°C° 0.3 mm 7 mps 742 mmHg 87%
    19:00 +2°C° 0.3 mm 8 mps 742 mmHg 86%
    20:00 +2°C° 0.3 mm 8 mps 741 mmHg 86%
    21:00 +4°C° 0.4 mm 8 mps 741 mmHg 85%
    22:00 +4°C° 0.4 mm 8 mps 741 mmHg 84%
    23:00 +4°C° 0.4 mm 7 mps 741 mmHg 83%

    16 December, Saturday

    Time Temperature Precipitation Wind Pressure Humidity
    00:00 +4°C° 0.5 mm 7 mps 741 mmHg 85%
    01:00 +4°C° 0.5 mm 6 mps 742 mmHg 88%
    02:00 +5°C° 0.5 mm 5 mps 742 mmHg 90%
    03:00 +4°C° 1 mm 4 mps 742 mmHg 92%
    04:00 +4°C° 1 mm 3 mps 742 mmHg 94%
    05:00 +5°C° 1 mm 2 mps 742 mmHg 96%
    06:00 +4°C° 0.6 mm 2 mps 742 mmHg 94%
    07:00 +4°C° 0.6 mm 2 mps 742 mmHg 93%
    08:00 +4°C° 0.6 mm 2 mps 742 mmHg 91%
    09:00 +3°C° 0.5 mm 2 mps 743 mmHg 90%
    10:00 +3°C° 0.5 mm 2 mps 743 mmHg 90%
    11:00 +3°C° 0.5 mm 2 mps 743 mmHg 89%
    12:00 +3°C° 0.5 mm 2 mps 743 mmHg 90%
    13:00 +3°C° 0.5 mm 2 mps 743 mmHg 91%
    14:00 +3°C° 0.5 mm 2 mps 743 mmHg 91%
    15:00 +2°C° 0.1 mm 2 mps 743 mmHg 92%
    16:00 +2°C° 0.1 mm 2 mps 744 mmHg 92%
    17:00 +2°C° 0.1 mm 2 mps 744 mmHg 93%
    18:00 +2°C° 0 mm 2 mps 745 mmHg 93%
    19:00 +2°C° 0 mm 2 mps 745 mmHg 93%
    20:00 +2°C° 0 mm 2 mps 746 mmHg 93%
    21:00 +1°C° 0 mm 2 mps 746 mmHg 92%
    22:00 +1°C° 0 mm 2 mps 747 mmHg 92%
    23:00 +1°C° 0 mm 2 mps 747 mmHg 92%

    17 December, Sunday

    Time Temperature Precipitation Wind Pressure Humidity
    00:00 +1°C° 0 mm 2 mps 747 mmHg 91%
    01:00 +1°C° 0 mm 2 mps 748 mmHg 91%
    02:00 +2°C° 0 mm 1 mps 748 mmHg 90%
    03:00 +1°C° 0 mm 2 mps 748 mmHg 90%
    04:00 +1°C° 0 mm 2 mps 748 mmHg 89%
    05:00 +1°C° 0 mm 2 mps 748 mmHg 89%
    06:00 +1°C° 0 mm 2 mps 748 mmHg 88%
    07:00 +1°C° 0 mm 2 mps 748 mmHg 88%
    08:00 -1°C° 0 mm 3 mps 748 mmHg 88%
    09:00 0°C° 0.1 mm 3 mps 748 mmHg 87%
    10:00 0°C° 0.1 mm 3 mps 748 mmHg 86%
    11:00 -1°C° 0.1 mm 4 mps 748 mmHg 85%
    12:00 -1°C° 0.1 mm 4 mps 748 mmHg 85%
    13:00 0°C° 0.1 mm 5 mps 748 mmHg 85%
    14:00 0°C° 0.1 mm 5 mps 747 mmHg 85%
    15:00 -1°C° 0.4 mm 5 mps 747 mmHg 86%
    16:00 -2°C° 0.4 mm 6 mps 747 mmHg 87%
    17:00 -2°C° 0.4 mm 6 mps 747 mmHg 88%
    18:00 -2°C° 0.9 mm 6 mps 747 mmHg 89%
    19:00 -2°C° 0.9 mm 6 mps 747 mmHg 89%
    20:00 -2°C° 0.9 mm 7 mps 747 mmHg 90%
    21:00 -2°C° 0.7 mm 7 mps 746 mmHg 90%
    22:00 -2°C° 0.7 mm 7 mps 746 mmHg 90%
    23:00 -2°C° 0.7 mm 7 mps 746 mmHg 90%

    18 December, Monday

    Time Temperature Precipitation Wind Pressure Humidity
    00:00 -2°C° 0.5 mm 7 mps 746 mmHg 90%
    01:00 -2°C° 0.5 mm 7 mps 746 mmHg 90%
    02:00 -2°C° 0.5 mm 7 mps 747 mmHg 90%
    03:00 -3°C° 0.3 mm 7 mps 747 mmHg 90%
    04:00 -3°C° 0.3 mm 7 mps 747 mmHg 89%
    05:00 -3°C° 0.3 mm 7 mps 748 mmHg 89%
    06:00 -3°C° 0.2 mm 7 mps 748 mmHg 89%
    07:00 -3°C° 0.2 mm 7 mps 749 mmHg 90%
    08:00 -3°C° 0.2 mm 6 mps 749 mmHg 90%
    09:00 -3°C° 0.2 mm 6 mps 750 mmHg 90%
    10:00 -3°C° 0.2 mm 6 mps 751 mmHg 90%
    11:00 -3°C° 0.2 mm 6 mps 751 mmHg 91%
    12:00 -3°C° 0.1 mm 6 mps 752 mmHg 91%
    13:00 -2°C° 0.1 mm 5 mps 752 mmHg 90%
    14:00 -2°C° 0.1 mm 5 mps 752 mmHg 90%
    15:00 -2°C° 0.1 mm 5 mps 753 mmHg 90%
    16:00 -2°C° 0.1 mm 5 mps 753 mmHg 90%
    17:00 -3°C° 0.1 mm 4 mps 754 mmHg 90%
    18:00 -3°C° 0 mm 4 mps 754 mmHg 90%
    19:00 -3°C° 0 mm 4 mps 754 mmHg 90%
    20:00 -3°C° 0 mm 4 mps 755 mmHg 90%
    21:00 -3°C° 0 mm 4 mps 755 mmHg 90%
    22:00 -3°C° 0 mm 4 mps 755 mmHg 90%
    23:00 -3°C° 0 mm 4 mps 756 mmHg 90%
    Show more